Location: Coyote Lake
(37.1190°N, 121.5480°W)
Time: 17:47:28
(UTC-08:00)

Hubble Space Telescope - Visible Passes

Search period start: 20 February 2018 00:00
Search period end: 02 March 2018 00:00
Orbit: 537 x 541 km, 28.5° (Epoch: 20 February)

Date Brightness Start Highest point End Pass type
(mag) Time Alt. Az. Time Alt. Az. Time Alt. Az.
20 Feb 2.8 05:53:16 10° SW 05:56:25 21° S 05:59:35 10° ESE visible
21 Feb 2.6 05:42:58 11° SW 05:46:04 23° S 05:49:20 10° ESE visible
22 Feb 2.5 05:33:20 15° SW 05:35:43 24° S 05:39:03 10° ESE visible
23 Feb 2.4 05:23:39 19° SW 05:25:21 24° S 05:28:44 10° ESE visible
24 Feb 2.3 05:13:57 22° SSW 05:15:00 24° S 05:18:23 10° SE visible
25 Feb 2.3 05:04:15 23° SSW 05:04:39 24° S 05:07:59 10° SE visible
26 Feb 2.4 04:54:33 23° S 04:54:33 23° S 04:57:35 10° SE visible
27 Feb 2.7 04:44:53 20° SSE 04:44:53 20° SSE 04:47:06 10° SE visible
28 Feb 3.0 04:35:15 16° SSE 04:35:15 16° SSE 04:36:35 10° SE visible
01 Mar 3.5 04:25:40 11° SSE 04:25:40 11° SSE 04:25:59 10° SSE visible
